Regional Weather Roundup
Issued by NWS

Home | Current Version | Previous Version | Text Only | Print | Product List | Glossary On
Versions: 1 2 3 4 5 6 7 8 9 10 11 12 13 14 15 16 17 18 19 20 21 22 23 24 25 26 27 28 29 30 31 32 33 34 35 36 37 38 39 40 41 42 43 44 45 46 47 48 49 50
000
ASUS44 KMEG 210310
RWRTN
TENNESSEE HOURLY STATE WEATHER ROUNDUP
NATIONAL WEATHER SERVICE MEMPHIS TN
900 PM CST MON FEB 20 2017

TNZ002-004-019-021-049-052-054-088>092-210400-
WEST TENNESSEE

CITY           SKY/WX    TMP DP  RH WIND       PRES   REMARKS
MEMPHIS INTL   MOCLDY    70  53  54 SE12      29.94R
NWS MEMPHIS      N/A     68 N/A N/A MISG        N/A
JACKSON        CLOUDY    59  51  75 CALM      29.98S
UNION CITY     CLEAR     64  46  52 CALM      29.95F
PARIS          CLEAR     61  48  63 SE6       29.99F
HUNTINGDON     CLEAR     64  50  59 SE6       29.98S
$$

TNZ008-025-027-028-033-062-065-066-210400-
NORTH MIDDLE TENNESSEE

CITY           SKY/WX    TMP DP  RH WIND       PRES   REMARKS
NASHVILLE      MOCLDY    61  44  53 S5        30.05F
PORTLAND       CLEAR     57  45  62 SE3       30.06F
CLARKSVILLE    CLOUDY    58  46  64 SE7       30.02F
SMYRNA         CLOUDY    54  47  77 SE3       30.07F
COOKEVILLE     PTCLDY    61  46  59 S3        30.09S
GALLATIN       CLEAR     57  46  67 CALM      30.08F
CROSSVILLE     PTCLDY    52  44  74 CALM      30.14F
$$

TNZ061-075-076-078-094-096-097-210400-
SOUTH MIDDLE TENNESSEE

CITY           SKY/WX    TMP DP  RH WIND       PRES   REMARKS
FAYETTEVILLE   CLEAR     61  48  63 SE7       30.08F HAZE
TULLAHOMA      CLEAR     54  45  71 CALM      30.10S
MCMINNVILLE    CLEAR     55  46  71 CALM      30.10S
COLUMBIA       CLEAR     63  48  59 SE6       30.02F
SHELBYVILLE    CLEAR     57  48  72 SE3       30.08F
$$

TNZ017-018-042-046-047-210400-
NORTHEAST TENNESSEE

CITY           SKY/WX    TMP DP  RH WIND       PRES   REMARKS
TRI CITIES     CLOUDY    47  38  71 CALM      30.16R
ELIZABETHTON   CLOUDY    48  37  66 NE5       30.16R
$$

TNZ012-013-036-069-073-074-210400-
CENTRAL EAST TENNESSEE

CITY           SKY/WX    TMP DP  RH WIND       PRES   REMARKS
KNOXVILLE      CLOUDY    57  44  62 CALM      30.12S
OAK RIDGE      CLOUDY    53  46  77 CALM      30.14
GATLINBURG     CLEAR     48  43  81 E3        30.13S
MORRISTOWN     CLEAR     54  45  71 CALM      30.14R
JACKSBORO      CLEAR     50  45  81 CALM      30.17R
$$

TNZ083-085-099-210400-
SOUTHEAST TENNESSEE

CITY           SKY/WX    TMP DP  RH WIND       PRES   REMARKS
CHATTANOOGA    MOCLDY    55  50  83 CALM      30.12S
$$

SKY/WX REPORTED AS FAIR MEANS FEW OR NO CLOUDS BELOW
12 THOUSAND FEET.




USA.gov is the U.S. government's official web portal to all federal, state and local government web resources and services.